N7TUG Weather Reports


time (UTC)temp
F
wind
direction
speed
knots
gust
knots
rain 1hr
in
rain 24hr
in
rain mn
in
humidity
%
barometer
mb
20260505140515 57 150 3.5 9.6 0.00 0.00 0.00 84 1014.6
20260505124515 56 121 7.0 10.4 0.00 0.00 0.00 86 1013.8
20260505123515 56 134 5.2 10.4 0.00 0.00 0.00 86 1013.8
20260505122535 56 129 5.2 10.4 0.00 0.00 0.00 87 1013.7
20260505121516 56 135 4.3 7.8 0.00 0.00 0.00 87 1013.6
20260505120536 56 125 5.2 10.4 0.00 0.00 0.00 87 1013.6
20260505115518 56 122 6.1 8.7 0.00 0.00 0.00 87 1013.6
20260505114535 56 141 4.3 11.3 0.00 0.00 0.00 87 1013.6
20260505113516 56 127 7.0 11.3 0.00 0.00 0.00 88 1013.5
20260505112515 56 142 4.3 10.4 0.00 0.00 0.00 87 1013.4
20260505111515 56 130 6.1 9.6 0.00 0.00 0.00 88 1013.4
20260505110515 56 130 6.1 9.6 0.00 0.00 0.00 88 1013.3
20260505101515 56 121 6.1 12.2 0.00 0.00 0.00 88 1012.9
20260505100515 56 128 6.1 10.4 0.00 0.00 0.00 88 1012.9
20260505095515 56 126 5.2 11.3 0.00 0.00 0.00 88 1012.8
20260505094515 56 136 5.2 11.3 0.00 0.00 0.00 87 1012.8
20260505093515 56 133 5.2 10.4 0.00 0.00 0.00 88 1012.7
20260505092515 56 128 6.1 10.4 0.00 0.00 0.00 88 1012.6
20260505091515 56 135 5.2 8.7 0.00 0.00 0.00 88 1012.4
20260505090515 56 127 4.3 7.0 0.00 0.00 0.00 88 1012.4
20260505085514 56 121 4.3 7.8 0.00 0.00 0.00 87 1012.4
20260505084515 56 125 4.3 7.8 0.00 0.00 0.00 87 1012.4
20260505083515 56 123 4.3 10.4 0.00 0.00 0.00 87 1012.3
20260505082535 56 131 6.1 10.4 0.00 0.00 0.00 88 1012.2
20260505081515 56 134 5.2 9.6 0.00 0.00 0.00 87 1012.2
20260505080535 56 132 6.1 10.4 0.00 0.00 0.00 87 1012.2
20260505075515 57 134 3.5 8.7 0.00 0.00 0.00 86 1012.2
20260505074516 57 127 5.2 8.7 0.00 0.00 0.00 87 1012.1
20260505073515 57 116 4.3 9.6 0.00 0.00 0.00 86 1011.8
20260505072515 57 122 5.2 9.6 0.00 0.00 0.00 86 1011.8
20260505071515 57 120 4.3 9.6 0.00 0.00 0.00 85 1011.7
20260505070515 57 126 4.3 9.6 0.00 0.00 0.00 85 1011.6
20260505065515 58 121 5.2 9.6 0.00 0.00 0.00 85 1011.5
20260505064515 58 119 4.3 8.7 0.00 0.00 0.00 84 1011.5
20260505063536 58 111 5.2 8.7 0.00 0.00 0.00 84 1011.3
20260505062514 58 116 4.3 9.6 0.00 0.00 0.00 83 1011.2
20260505061516 59 127 5.2 9.6 0.00 0.00 0.00 82 1010.9
20260505060516 59 129 5.2 9.6 0.00 0.00 0.00 82 1010.9
20260505055515 60 122 5.2 8.7 0.00 0.00 0.00 82 1010.7
20260505054516 60 134 6.1 9.6 0.00 0.00 0.00 81 1010.7
20260505053514 60 141 6.1 9.6 0.00 0.00 0.00 81 1010.5
20260505052535 60 141 5.2 8.7 0.00 0.00 0.00 81 1010.4
20260505051515 60 143 6.1 9.6 0.00 0.00 0.00 80 1010.4
20260505050516 61 143 6.1 10.4 0.00 0.00 0.00 80 1010.4
20260505041515 65 175 3.5 6.1 0.00 0.00 0.00 73 1009.6
20260505040516 65 159 3.5 6.1 0.00 0.00 0.00 73 1009.5
20260505035515 66 161 5.2 6.1 0.00 0.00 0.00 73 1009.4
20260505034515 66 170 4.3 6.1 0.00 0.00 0.00 72 1009.2
20260505033516 67 170 3.5 6.1 0.00 0.00 0.00 70 1009.1
20260505032515 68 168 4.3 7.8 0.00 0.00 0.00 70 1009.0
20260505031515 69 176 4.3 7.8 0.00 0.00 0.00 68 1008.9
20260505030515 70 159 6.1 7.8 0.00 0.00 0.00 65 1008.8
20260505025515 74 192 2.6 4.3 0.00 0.00 0.00 60 1008.6
20260505024516 74 256 1.7 3.5 0.00 0.00 0.00 58 1008.6
20260505023515 75 244 1.7 3.5 0.00 0.00 0.00 57 1008.6
20260505022515 76 236 1.7 3.5 0.00 0.00 0.00 56 1008.6
20260505021516 73 325 2.6 6.1 0.00 0.00 0.00 59 1008.5
20260505020516 75 307 3.5 7.0 0.00 0.00 0.00 59 1008.5
20260505015515 77 182 3.5 7.8 0.00 0.00 0.00 58 1008.4
20260505014515 77 168 4.3 7.0 0.00 0.00 0.00 58 1008.3
20260505013515 77 167 5.2 7.0 0.00 0.00 0.00 58 1008.3
20260505012515 78 174 4.3 7.0 0.00 0.00 0.00 57 1008.3
20260505011514 78 167 4.3 7.8 0.00 0.00 0.00 57 1008.4
20260505010515 77 156 5.2 7.8 0.00 0.00 0.00 57 1008.4
20260505005514 79 178 4.3 7.0 0.00 0.00 0.00 55 1008.4
20260505004515 78 167 5.2 7.0 0.00 0.00 0.00 54 1008.5
20260505003515 78 170 5.2 7.0 0.00 0.00 0.00 54 1008.5
20260505002515 79 171 4.3 7.0 0.00 0.00 0.00 52 1008.5
20260505001515 79 172 4.3 6.1 0.00 0.00 0.00 52 1008.6
20260505000516 79 157 3.5 5.2 0.00 0.00 0.00 52 1008.6
20260504235515 80 159 3.5 5.2 0.00 0.00 0.00 51 1008.6
20260504234515 80 184 3.5 6.1 0.00 0.00 0.00 50 1008.7
20260504233515 80 159 3.5 6.1 0.00 0.00 0.00 51 1008.7
20260504232515 80 179 3.5 6.1 0.00 0.00 0.00 50 1008.6
20260504231515 80 148 3.5 6.1 0.00 0.00 0.00 50 1008.6
20260504230535 79 162 3.5 7.0 0.00 0.00 0.00 51 1008.8
20260504225536 79 166 3.5 7.0 0.00 0.00 0.00 51 1008.9
20260504224536 78 140 4.3 7.0 0.00 0.00 0.00 51 1009.1
20260504223535 80 158 3.5 7.0 0.00 0.00 0.00 51 1009.1
20260504222515 80 174 3.5 5.2 0.00 0.00 0.00 50 1009.3
20260504221515 80 160 2.6 5.2 0.00 0.00 0.00 51 1009.4
20260504220515 79 180 2.6 6.1 0.00 0.00 0.00 53 1009.5
20260504215515 77 148 4.3 6.1 0.00 0.00 0.00 55 1009.6
20260504214515 77 140 3.5 7.0 0.00 0.00 0.00 56 1009.6
20260504213515 76 140 4.3 6.1 0.00 0.00 0.00 57 1009.7
20260504212515 76 157 3.5 7.0 0.00 0.00 0.00 58 1009.8
20260504211516 75 157 3.5 7.0 0.00 0.00 0.00 59 1009.9
20260504210515 75 151 4.3 7.0 0.00 0.00 0.00 59 1009.9
20260504205516 75 142 4.3 7.0 0.00 0.00 0.00 59 1010.0
20260504204555 76 158 3.5 7.0 0.00 0.00 0.00 59 1010.0
20260504203515 76 183 3.5 6.1 0.00 0.00 0.00 59 1010.0
20260504202515 75 151 3.5 6.1 0.00 0.00 0.00 60 1010.0
20260504201515 74 167 3.5 5.2 0.00 0.00 0.00 60 1010.0
20260504200515 74 169 2.6 7.0 0.00 0.00 0.00 60 1010.1
20260504195515 73 174 2.6 7.8 0.00 0.00 0.00 61 1010.0
20260504194515 73 159 3.5 6.1 0.00 0.00 0.00 60 1010.1
20260504193515 73 174 3.5 7.0 0.00 0.00 0.00 60 1010.1
20260504192515 73 164 4.3 7.0 0.00 0.00 0.00 59 1010.2
20260504191515 72 170 5.2 7.0 0.00 0.00 0.00 58 1010.2
20260504190516 73 166 4.3 5.2 0.00 0.00 0.00 56 1010.4
20260504185515 75 166 2.6 4.3 0.00 0.00 0.00 53 1010.4
20260504184515 76 171 1.7 3.5 0.00 0.00 0.00 53 1010.4
20260504183514 74 165 1.7 5.2 0.00 0.00 0.00 56 1010.4
20260504182515 73 163 3.5 5.2 0.00 0.00 0.00 57 1010.4
20260504181515 74 170 2.6 4.3 0.00 0.00 0.00 56 1010.5
20260504180515 72 171 3.5 6.1 0.00 0.00 0.00 58 1010.4
20260504175515 73 167 3.5 6.1 0.00 0.00 0.00 56 1010.4
20260504174515 72 149 2.6 4.3 0.00 0.00 0.00 57 1010.3
20260504173515 71 159 1.7 3.5 0.00 0.00 0.00 59 1010.4
20260504172555 70 164 2.6 4.3 0.00 0.00 0.00 60 1010.5
20260504171535 69 159 2.6 4.3 0.00 0.00 0.00 60 1010.5
20260504170535 69 147 2.6 5.2 0.00 0.00 0.00 58 1010.5
20260504150515 61 98 0.9 2.6 0.00 0.00 0.00 73 1009.9